Overview Statistics Trail Chart Weather Telemetry Raw packets
 

This is the latest recevied weather packets stored in our database for station/object K4WCH. If no packets are shown the sender has not sent any weather packets the latest 10 day(s).

<< 54 55 56 57 58 59 60 >>
Time Temp. Humidity Pressure Rain* Wind** Luminosity Snow
1788295314 30.56° C 74% 1015.8 hPa 0 mm - 202 W/m² -
1788295014 30° C 76% 1015.6 hPa 0 mm - 387 W/m² -
1788294710 30° C 76% 1015.7 hPa 0 mm - 397 W/m² -
1788294409 30° C 76% 1015.8 hPa 0 mm - 285 W/m² -
1788294105 30° C 75% 1015.6 hPa 0 mm - 339 W/m² -
1788293801 30° C 75% 1015.7 hPa 0 mm - 294 W/m² -
1788293500 30.56° C 76% 1015.8 hPa 0 mm - 356 W/m² -
1788293200 30° C 77% 1015.9 hPa 0 mm - 465 W/m² -
1788292895 29.44° C 76% 1015.9 hPa 0 mm - 464 W/m² -
1788292592 29.44° C 79% 1016.2 hPa 0 mm - 368 W/m² -
1788292292 29.44° C 78% 1015.8 hPa 0 mm - 324 W/m² -
1788291988 29.44° C 81% 1016.1 hPa 0 mm - 249 W/m² -
1788291683 29.44° C 79% 1015.9 hPa 0 mm - 244 W/m² -
1788291379 29.44° C 79% 1015.9 hPa 0 mm - 290 W/m² -
1788291073 29.44° C 79% 1015.9 hPa 0 mm - 696 W/m² -
1788290768 30° C 78% 1016 hPa 0 mm - 356 W/m² -
1788290486 30° C 80% 1016.1 hPa 0 mm - 320 W/m² -
1788290159 29.44° C 78% 1016.3 hPa 0 mm - 433 W/m² -
1788289855 30° C 78% 1016.1 hPa 0 mm - 456 W/m² -
1788289550 30° C 80% 1016.2 hPa 0 mm - 673 W/m² -
1788289249 30° C 79% 1016.1 hPa 0 mm - 585 W/m² -
1788288948 30° C 78% 1016 hPa 0 mm - 569 W/m² -
1788288647 30.56° C 77% 1016.1 hPa 0 mm - 1039 W/m² -
1788288343 30° C 81% 1016.4 hPa 0 mm - 1285 W/m² -
1788288038 29.44° C 80% 1016.4 hPa 0 mm - 570 W/m² -

* Rain latest hour (hover to see other rain measurements)
** Current wind speed in m/s (hover to see current wind gust speed)